Location: Peterborough
(44.3091°N, 78.3197°W)
Time: 09:25:04
(UTC-04:00)

A-11 Canister half - Pass Details

Date: 17 September 2024
Orbit: 1515 x 1684 km, 47.2° (Epoch: 02 October)

Event Time Altitude Azimuth Distance (km) Brightness Sun altitude
Rises 23:43:32 0° 288° (WNW) 4,679 12.1 -40.3°
Reaches altitude 10° 23:46:35 10° 289° (WNW) 3,686 11.4 -40.6°
Enters shadow 23:53:21 55° 287° (WNW) 1,777 9.3 -41.1°
